Location: Newark
(51.7244°N, 11.1392°E)
Time: 09:52:27
(UTC+00:00)

Starlink Launch 2 leader - Visible Passes

Search period start: 16 December 2019 00:00
Search period end: 26 December 2019 00:00
Orbit: 279 x 281 km, 53.0° (Epoch: 13 November)

Date Brightness Start Highest point End Pass type
(mag) Time Alt. Az. Time Alt. Az. Time Alt. Az.
23 Dec 4.8 17:18:04 10° SSW 17:18:59 16° S 17:18:59 16° S visible
24 Dec 4.2 17:19:37 10° SW 17:21:00 24° SSW 17:21:00 24° SSW visible
25 Dec 3.8 17:21:21 10° SW 17:22:59 33° SW 17:22:59 33° SW visible
